Kalamazoo, MI

2:04 PM EDT on March 29, 2017 (GMT -0400)
Kalamazoo-Battle Creek International

Weather History for KAZO - January, 2007

Change the Weather History Date:

Friday, January 19, 2007

  Actual Average Record
Temperature  
Mean Temperature 26 °F 24 °F  
Max Temperature 30 °F 31 °F 55 °F (1973)
Min Temperature 23 °F 18 °F -11 °F (1997)
Degree Days  
Heating Degree Days 38 41  
Month to date heating degree days 771  
Since 1 July heating degree days 3222  
Cooling Degree Days 0 0  
Month to date cooling degree days 0  
Year to date cooling degree days 0  
Moisture  
Dew Point 21 °F    
Average Humidity 78    
Maximum Humidity 93    
Minimum Humidity 65    
Precipitation  
Precipitation 0.01 in 0.06 in 1.11 in (1949)
Month to date precipitation 1.08  
Year to date precipitation 1.08  
Snow  
Snow 0.00 in - - ()
Snow Depth 3.00 in    
Sea Level Pressure  
Sea Level Pressure 30.09 in    
Wind  
Wind Speed 12 mph (WNW)    
Max Wind Speed 22 mph    
Max Gust Speed 28 mph    
Visibility 5 miles    
Events Snow    
T = Trace of Precipitation, MM = Missing Value Source: NWS Daily Summary

Daily Weather History Graph

Daily Weather History Graph

Search for Another Location

Airport or City:

Trip Planner

Search our weather history database for the weather conditions in past years. The results will help you decide how hot, cold, wet, or windy it might be!

Date:

Astronomy

Jan. 19, 2007 Rise Set
Actual Time 8:06 AM EST 5:39 PM EST
Civil Twilight 7:35 AM EST 6:10 PM EST
Nautical Twilight 7:01 AM EST 6:44 PM EST
Astronomical Twilight 6:27 AM EST 7:18 PM EST
Moon 8:48 AM EST (1/19) 6:18 PM EST (1/19)
Length of Visible Light 10h 34m
Length of Day
9h 33m
New Moon, 0% of the Moon is Illuminated
Jan 19
New Moon
Jan 25
First Quarter
Feb 2
Full
Feb 10
Last Quarter
Feb 17
New

Hourly Weather History & Observations

Time (EST) Temp. Windchill Dew Point Humidity Pressure Visibility Wind Dir Wind Speed Gust Speed Precip Events Conditions
12:05 AM 28.4 °F 19.7 °F 26.6 °F 93% 29.95 in 1.5 mi West 9.2 mph - 0.01 in Snow Light Snow
12:07 AM 28.4 °F 19.7 °F 26.6 °F 93% 29.95 in 2.0 mi West 9.2 mph - 0.01 in Snow Light Snow
12:17 AM 28.4 °F 19.7 °F 26.6 °F 93% 29.95 in 3.0 mi West 9.2 mph - 0.01 in Snow Light Snow
12:42 AM 28.4 °F 19.1 °F 24.8 °F 86% 29.95 in 3.0 mi West 10.4 mph - 0.01 in Snow Light Snow
12:53 AM 28.9 °F 18.6 °F 25.0 °F 85% 29.99 in 6.0 mi West 12.7 mph - 0.01 in Snow Light Snow
1:23 AM 28.4 °F 19.1 °F 24.8 °F 86% 29.96 in 6.0 mi West 10.4 mph - 0.00 in Snow Light Snow
1:53 AM 28.9 °F 19.2 °F 25.0 °F 85% 30.00 in 4.0 mi West 11.5 mph - 0.00 in Snow Light Snow
2:36 AM 30.2 °F 20.8 °F 24.8 °F 80% 29.98 in 2.5 mi West 11.5 mph - 0.00 in Snow Light Snow
2:53 AM 30.0 °F 19.5 °F 25.0 °F 82% 30.01 in 4.0 mi West 13.8 mph 19.6 mph 0.00 in Snow Light Snow
3:53 AM 28.9 °F 16.9 °F 24.1 °F 82% 30.04 in 6.0 mi West 17.3 mph 24.2 mph 0.00 in Snow Light Snow
4:53 AM 28.0 °F 16.5 °F 21.9 °F 78% 30.06 in 6.0 mi WNW 15.0 mph 23.0 mph 0.00 in Snow Light Snow
5:18 AM 28.4 °F 17.5 °F 21.2 °F 74% 30.03 in 5.0 mi WNW 13.8 mph - 0.00 in Snow Light Snow
5:53 AM 28.0 °F 16.5 °F 19.9 °F 72% 30.08 in 8.0 mi WNW 15.0 mph 21.9 mph 0.00 in Snow Light Snow
6:33 AM 26.6 °F 15.7 °F 21.2 °F 80% 30.05 in 1.5 mi WNW 12.7 mph - 0.00 in Snow Light Snow
6:43 AM 26.6 °F 17.5 °F 21.2 °F 80% 30.05 in 2.5 mi WNW 9.2 mph - 0.00 in Snow Light Snow
6:47 AM 26.6 °F 18.2 °F 21.2 °F 80% 30.06 in 1.8 mi WNW 8.1 mph - 0.00 in Snow Light Snow
6:53 AM 26.6 °F 18.2 °F 21.2 °F 80% 30.06 in 1.2 mi West 8.1 mph - N/A Snow Light Snow
7:10 AM 26.6 °F 16.8 °F 21.2 °F 80% 30.07 in 2.0 mi West 10.4 mph - N/A Snow Light Snow
7:27 AM 26.6 °F 16.2 °F 21.2 °F 80% 30.07 in 3.0 mi West 11.5 mph - 0.00 in Snow Light Snow
7:44 AM 26.6 °F 16.2 °F 21.2 °F 80% 30.08 in 2.0 mi West 11.5 mph 18.4 mph 0.00 in Snow Light Snow
7:53 AM 27.0 °F 17.3 °F 21.9 °F 81% 30.12 in 2.5 mi West 10.4 mph - 0.00 in Snow Light Snow
8:26 AM 26.6 °F 16.8 °F 23.0 °F 86% 30.09 in 1.5 mi West 10.4 mph - 0.00 in Snow Light Snow
8:53 AM 27.0 °F 17.3 °F 21.9 °F 81% 30.13 in 1.5 mi West 10.4 mph - 0.00 in Snow Light Snow
9:12 AM 26.6 °F 16.2 °F 21.2 °F 80% 30.10 in 2.5 mi West 11.5 mph - 0.00 in Snow Light Snow
9:36 AM 26.6 °F 15.7 °F 21.2 °F 80% 30.11 in 2.5 mi West 12.7 mph 18.4 mph 0.00 in Snow Light Snow
9:49 AM 28.4 °F 19.7 °F 21.2 °F 74% 30.11 in 4.0 mi West 9.2 mph - 0.00 in Snow Light Snow
9:53 AM 28.0 °F 17.5 °F 19.9 °F 72% 30.14 in 5.0 mi West 12.7 mph - 0.00 in Snow Light Snow
10:53 AM 28.0 °F 15.7 °F 21.0 °F 75% 30.16 in 7.0 mi West 17.3 mph 21.9 mph 0.00 in Snow Light Snow
11:53 AM 27.0 °F 14.7 °F 19.0 °F 72% 30.16 in 8.0 mi West 16.1 mph 24.2 mph 0.00 in   Overcast
12:01 PM 26.6 °F 14.7 °F 19.4 °F 74% 30.12 in 7.0 mi West 15.0 mph 24.2 mph 0.00 in Snow Light Snow
12:53 PM 26.1 °F 13.6 °F 19.0 °F 75% 30.15 in 5.0 mi West 16.1 mph 24.2 mph 0.00 in Snow Light Snow
1:45 PM 26.6 °F 13.8 °F 17.6 °F 69% 30.10 in 10.0 mi West 17.3 mph 27.6 mph 0.00 in   Overcast
1:53 PM 26.1 °F 14.0 °F 18.0 °F 71% 30.13 in 10.0 mi WNW 15.0 mph 26.5 mph 0.00 in Snow Light Snow
2:53 PM 26.1 °F 15.0 °F 19.0 °F 75% 30.13 in 7.0 mi West 12.7 mph 24.2 mph 0.00 in Snow Light Snow
3:53 PM 26.1 °F 13.1 °F 18.0 °F 71% 30.12 in 10.0 mi West 17.3 mph 24.2 mph 0.00 in   Overcast
4:53 PM 26.1 °F 14.5 °F 18.0 °F 71% 30.14 in 10.0 mi West 13.8 mph 24.2 mph N/A   Overcast
5:53 PM 26.1 °F 14.0 °F 17.1 °F 69% 30.15 in 10.0 mi West 15.0 mph - N/A   Overcast
6:53 PM 25.0 °F 13.6 °F 16.0 °F 69% 30.17 in 10.0 mi WNW 12.7 mph 21.9 mph N/A   Overcast
7:31 PM 24.8 °F 10.0 °F 17.6 °F 74% 30.15 in 2.0 mi NW 21.9 mph 26.5 mph 0.00 in Snow Light Snow
7:35 PM 24.8 °F 11.9 °F 17.6 °F 74% 30.15 in 1.5 mi WNW 16.1 mph 26.5 mph 0.00 in Snow Light Snow
7:53 PM 24.1 °F 13.1 °F 19.0 °F 81% 30.19 in 3.0 mi NW 11.5 mph - 0.00 in Snow Light Snow
8:23 PM 23.0 °F 10.6 °F 15.8 °F 74% 30.16 in 9.0 mi NW 13.8 mph 21.9 mph 0.00 in   Mostly Cloudy
8:53 PM 23.0 °F 12.4 °F 15.1 °F 72% 30.21 in 10.0 mi WNW 10.4 mph - 0.00 in   Mostly Cloudy
9:53 PM 24.1 °F 16.0 °F 14.0 °F 65% 30.22 in 10.0 mi WNW 6.9 mph - N/A   Overcast
10:53 PM 24.1 °F 15.2 °F 15.1 °F 69% 30.24 in 9.0 mi NW 8.1 mph - 0.00 in Snow Light Snow
11:53 PM 23.0 °F 11.7 °F 15.1 °F 72% 30.26 in 7.0 mi NW 11.5 mph - 0.00 in Snow Light Snow